Regional Weather Roundup
Issued by NWS

Home | Current Version | Previous Version | Text Only | Print | Product List | Glossary On
Versions: 1 2 3 4 5 6 7 8 9 10 11 12 13 14 15 16 17 18 19 20 21 22 23 24 25 26 27 28 29 30 31 32 33 34 35 36 37 38 39 40 41 42 43 44 45 46 47 48 49 50
000
ASUS44 KEWX 292212
RWRTX
SOUTH TEXAS REGIONAL WEATHER ROUNDUP
NATIONAL WEATHER SERVICE AUSTIN/SAN ANTONIO TX
500 PM CDT MON MAY 29 2017

NOTE: "FAIR" INDICATED FEW OR NO CLOUDS BELOW 12,000 FEET WITH NO
SIGNIFICANT WEATHER AND/OR OBSTRUCTIONS TO VISIBILITY.

* - THESE STATIONS ARE NOT NWS OR FAA STATIONS...AND ARE NOT SUBJECT
    TO NWS AND FAA QUALITY CONTROL.

TXZ171-172-183>190-292300-
TEXAS HILL COUNTRY AND EDWARDS PLATEAU

CITY           SKY/WX    TMP DP  RH WIND       PRES   REMARKS
JUNCTION       CLOUDY    81  64  56 E9        30.01F
*LLANO         MOSUNNY   84  66  54 CALM      30.03F
BURNET         MOSUNNY   81  63  54 CALM      30.03F
*HORSESHOE BAY NOT AVBL
*KERRVILLE     MOSUNNY   84  66  54 S5        30.01F
*FREDERICKSBRG MOSUNNY   83  62  49 S3        30.01F
*ROCKSPRINGS     N/A    N/A N/A N/A MISG        N/A
*BOERNE STAGE  MOSUNNY   82  63  51 SE7       30.01F
*CASTROVILLE   MOSUNNY   90  60  36 CALM      29.98F
HONDO          SUNNY     86  68  54 VRB5      29.97F
*UVALDE        MOSUNNY   83  70  64 CALM      29.98F
DEL RIO        MOSUNNY   86  67  52 SE15G23   29.93F
LAUGHLIN AFB   MOSUNNY   87  71  58 SE13      29.94F HX  92
CARRIZO SPRGS  PTSUNNY   88  64  45 E3        29.92F
*EAGLE PASS    NOT AVBL
$$

TXZ173-191>194-202-209-217>225-228-292300-
CENTRAL AND SOUTH CENTRAL TEXAS

CITY           SKY/WX    TMP DP  RH WIND       PRES   REMARKS
GEORGETOWN     MOSUNNY   84  66  54 N8        29.99F
AUSTIN/BERGSTM MOSUNNY   87  67  51 VRB3      29.97F HX  90
AUSTIN/MABRY   SUNNY     86  65  49 CALM      29.99F
*AUSTIN/EXEC   SUNNY     82  66  57 CALM      29.99F
*LAGO VISTA    MOSUNNY   83  65  54 CALM      30.01F
SAN MARCOS       N/A    N/A N/A N/A MISG        N/A
NEW BRAUNFELS  MOSUNNY   87  66  49 E3        29.96F
RANDOLPH AFB   SUNNY     87  64  46 E3        29.97F
PT SAN ANTONIO MOSUNNY   88  66  47 E5        29.96S HX  90
SAN ANTONIO    MOSUNNY   87  61  41 E5        29.98S
STINSON FIELD  SUNNY     87  63  44 S6        29.95S
*LA GRANGE     CLOUDY    87  69  55 N7        29.96S HX  90
*GIDDINGS      PTSUNNY   83  65  54 N6        29.99F
*GONZALES      PTSUNNY   87  70  56 NE7       29.96F HX  92
$$

TXZ163>164-176>182-195>201-210>213-226-227-235-292300-
SOUTHEAST TEXAS

CITY           SKY/WX    TMP DP  RH WIND       PRES   REMARKS
COLLEGE STN    PTSUNNY   84  68  58 N3        29.98F
*BRYAN         PTSUNNY   83  66  56 NW5       29.99F
*CALDWELL      NOT AVBL
*CROCKETT        N/A    N/A N/A N/A MISG        N/A
*BRENHAM       PTSUNNY   85  67  55 N6        29.99S
HUNTSVILLE     CLOUDY    83  67  58 N5        29.99F
CONROE         CLOUDY    81  69  67 N5        30.00R
HOUSTON BUSH   CLOUDY    82  68  62 N3        29.99S
HOUSTON HOBBY  CLOUDY    82  69  64 VRB3      29.99S
*HOUSTON SW AP CLOUDY    80  69  69 E5        29.99F
PEARLAND       CLOUDY    81  70  69 E9        30.00F
HOUSTON HOOKS  CLOUDY    81  69  67 VRB3      29.99S
ELLINGTON FLD  CLOUDY    82  72  69 NE5       30.00F
SUGAR LAND     CLOUDY    83  69  62 E5        29.98F
*HOUSTON EXEC  CLOUDY    81  68  65 NE7       30.01S
*CLEVELAND MUN CLOUDY    80  71  74 CALM      30.01S
*WHARTON       CLOUDY    79  67  66 NE5       30.00F
*COLUMBUS      CLOUDY    82  66  59 NE8       29.99S
*EAGLE LAKE    CLOUDY    82  71  70 E8        29.99R
$$

TXZ214>216-236>238-292300-
THE UPPER TEXAS COAST

CITY           SKY/WX    TMP DP  RH WIND       PRES   REMARKS
*ORANGE        CLOUDY    79  71  75 SE3       30.03R
PORT ARTHUR    CLOUDY    77  69  76 E5        30.01R
GALVESTON      CLOUDY    81  71  71 N9        30.00S
ANGLETON       PTSUNNY   83  71  67 NE7       29.98F
*BAY CITY      CLOUDY    82  71  69 NE5       29.98S
PALACIOS       CLOUDY    82  68  62 NE12      29.97S
$$

TXZ229>234-239>247-292300-
TEXAS COASTAL BEND AND RIO GRANDE PLAINS

CITY           SKY/WX    TMP DP  RH WIND       PRES   REMARKS
VICTORIA       CLOUDY    84  70  62 NE12      29.97R
*BEEVILLE      CLOUDY    87  68  52 N7        29.94S HX  91
ROCKPORT       CLOUDY    83  68  60 E15       29.95R
*PORT ARANSAS  CLOUDY    81  68  65 E13G18    29.96R
*PORT LAVACA   CLOUDY    82  74  75 CALM      29.97S
*INGLESIDE     CLOUDY    85  70  60 MISG      29.95R
CORPUS CHRISTI CLOUDY    85  70  60 NE10      29.94R
CORPUS NAS     CLOUDY    84  72  67 E15       29.95R
*ROBSTOWN      CLOUDY    86  69  57 E7        29.94S HX  90
ALICE          CLOUDY    88  65  46 E5        29.92F HX  90
KINGSVILLE NAS CLOUDY    85  72  65 NE3       29.94R HX  91
COTULLA        SUNNY     91  65  41 CALM      29.93F HX  93
*FAITH RANCH   SUNNY     88  63  42 VRB3      29.93F
LAREDO         SUNNY     87  67  51 CALM      29.94F HX  90
$$

TXZ248>255-292300-
DEEP SOUTH TEXAS

CITY           SKY/WX    TMP DP  RH WIND       PRES   REMARKS
BROWNSVILLE    CLOUDY    86  71  60 E7        29.96R HX  91
PORT ISABEL    CLOUDY    83  71  67 E14       29.95R
*SOUTH PADRE   NOT AVBL
HARLINGEN      CLOUDY    84  73  69 E15       29.94R HX  90
*HEBBRONVILLE  PTSUNNY   86  63  45 CALM      29.95F
MCALLEN        PTSUNNY   89  69  51 SE9       29.94R HX  93
*WESLACO       CLOUDY    84  69  58 E6        29.94S
FALFURRIAS     CLOUDY    86  67  53 CALM      29.93S
EDINBURG       CLOUDY    91  65  42 E7        29.95R HX  92
*ZAPATA        CLOUDY    88  66  48 CALM      29.93  HX  90
$$

TXZ213>215-236>238-242>244-246-247-251-254-255-292300-
CMAN STATIONS

STATION/POSITION TIME  TEMP    WIND        PRES    WAVE
                       AIR SEA DIR/SP/G            HT/PER
                 (UTC) (F)     (DEG/KT/KT) (MB)    (FT/S)
SABINE PASS      2148   78 83   20/  6/  8 1017.5
SEA RIM ST PARK  2100   77     360/  6/  7 1016.5
NORTH JETTY/GLS  2148           20/  9/ 11 1015.1
EAGLE POINT      2148   77 81   60/  8/  9 1015.6
MORGANS POINT    2148   78 81   60/  6/  9 1015.4
MISSION/ARANSAS  2100   82      40/  5     1014.0
PORT O`CONNOR    2148   78      30/ 10/ 11 1014.5
PORT ARANSAS     2100   78 81   60/ 11/ 12 1014.2
MALAQUITE BEACH  2148   78 81   70/ 14/ 16 1015.0
BAFFIN BAY       2148   78 84              1014.4
PORT ISABEL      2148   83 83  200/  3/  6 1014.7
$$

GMZ080-GMZ150>470-292300-
OFFSHORE BUOY REPORTS

STATION/POSITION TIME  TEMP    WIND        PRES    WAVE
                       AIR SEA DIR/SP/G            HT/PER
                 (UTC) (F)     (DEG/KT/KT) (MB)    (FT/S)
20 E GALVESTON   2150   76 79   10/ 12/ 14 1015.4    3/ 7
90 E PT ARANSAS  2150   76 79  350/ 14/ 16 1014.2    4/ 7
35 NE PT MANSFLD 2150   79      70/ 12/ 14 1013.9    6/ 8
200 E PT ISABEL  2150   80 81  120/ 19/ 23 1011.7    7/ 7
$$



USA.gov is the U.S. government's official web portal to all federal, state and local government web resources and services.